Wetbulb
69.12 75.50 77.55 77.37 77.00 76.64 76.49 77.00 77.29 77.44 77.39 77.37 77.35 77.07 76.87 76.96 77.04 76.71 76.09 75.64 75.24 74.53 73.98 72.95 71.69 70.42 69.42 68.69 68.01 68.13 68.99 70.35 71.95 73.37 73.44 73.52 73.90 73.95 73.68 73.77 72.99 72.79 72.24
70.35 75.82 76.17 76.92 77.02 76.67 76.31 76.24 76.59 76.86 76.88 77.16 77.36 77.11 76.96 76.81 76.69 76.26 75.59 74.84 74.21 73.45 72.05 70.56 69.40 68.52 67.93 67.19 66.42 66.31 65.98 66.22 66.76 68.67 71.09 72.36 72.62 73.14 73.36 73.02 72.48 73.16 72.63
71.35 75.89 76.34 76.67 76.92 76.67 76.12 75.66 75.49 75.81 76.30 76.60 76.88 76.86 76.55 76.36 76.11 75.66 75.14 74.01 72.82 71.68 70.43 69.36 68.59 68.40 68.12 67.97 67.77 67.48 67.11 66.91 66.68 66.83 66.89 71.00 70.81 72.16 72.54 73.24 72.84 72.50 72.64
73.04 76.56 76.54 76.49 76.69 76.64 76.07 75.62 75.11 75.14 75.46 75.86 75.93 76.08 75.93 75.61 75.29 74.69 73.82 72.74 71.73 70.62 69.74 69.11 69.01 69.12 68.77 68.45 68.05 67.97 68.31 68.97 70.20 68.77 68.17 69.29 70.10 71.73 72.36 72.94 72.88 72.04 72.29
72.86 75.37 76.59 76.59 76.52 76.64 76.29 75.81 75.29 75.04 74.96 75.16 75.29 75.19 75.09 74.81 74.49 73.74 73.27 72.90 71.97 70.54 69.94 69.86 69.59 69.21 68.91 68.72 68.55 69.11 69.53 70.51 71.18 70.18 70.51 70.96 70.74 70.89 72.21 72.40 73.09 72.48 71.99
71.84 74.39 76.40 76.34 76.56 76.52 76.37 75.84 75.48 75.48 75.41 75.21 75.21 75.01 74.89 74.66 73.99 73.34 72.82 72.73 72.29 71.16 70.54 70.40 69.96 69.58 69.44 69.02 69.28 69.61 70.07 70.63 70.21 70.87 71.25 70.01 70.50 69.29 71.59 72.46 72.36 72.36 72.11
71.07 73.53 75.99 76.43 76.46 76.56 76.49 76.06 75.68 75.45 75.25 75.21 75.23 75.11 74.99 74.44 73.74 73.05 72.87 72.76 72.39 72.33 71.44 70.58 70.33 70.80 70.66 69.68 69.73 70.03 70.23 70.39 70.02 70.65 70.51 70.22 70.66 68.09 71.59 71.98 72.43 72.50 72.29
71.12 73.00 74.99 76.32 76.33 76.16 76.09 75.69 75.41 75.18 75.12 75.13 75.03 74.98 74.86 74.36 73.59 72.85 72.90 72.84 72.50 72.46 72.15 71.67 71.39 71.19 71.32 70.55 70.03 70.16 70.33 69.96 69.66 69.82 69.41 70.97 67.89 68.13 71.44 71.59 72.41 72.15 72.47
71.07 71.97 74.48 75.52 76.42 76.23 75.93 75.67 75.42 75.29 75.19 75.14 74.92 74.67 74.70 74.35 73.58 73.00 72.63 72.75 72.64 72.29 72.06 72.01 71.61 71.39 71.24 70.65 70.28 70.33 70.24 70.45 69.46 70.00 68.69 69.46 67.54 68.63 70.98 71.38 71.55 72.03 72.05
69.85 70.66 73.23 74.46 74.80 75.27 75.56 75.96 75.55 75.42 75.40 75.32 75.10 74.95 74.58 74.36 73.87 73.16 72.00 72.13 72.62 72.45 72.30 72.10 71.81 71.44 71.34 71.23 70.80 70.36 70.48 70.58 70.12 69.61 69.89 70.38 68.13 69.00 70.67 71.29 71.38 71.14 71.35
67.99 69.99 72.00 73.09 73.76 74.34 74.34 75.26 75.55 75.33 75.34 75.46 75.55 75.09 74.43 73.87 73.85 73.19 71.77 71.97 72.48 72.63 72.53 72.53 72.18 71.70 71.33 70.63 70.31 70.26 70.09 70.27 69.89 69.91 70.59 68.21 68.69 69.53 70.38 71.22 71.77 71.53 71.34
66.16 68.29 70.48 72.28 73.17 73.59 73.24 74.77 74.98 74.87 75.00 75.20 75.07 75.22 74.71 74.16 74.04 72.68 72.66 71.64 72.33 72.35 72.47 72.57 72.52 72.02 70.67 69.51 69.98 70.29 69.77 69.94 69.95 69.82 70.57 68.75 69.60 70.03 70.97 71.28 72.54 71.78 71.26
66.34 67.61 69.31 71.40 72.57 72.36 71.83 73.11 73.83 74.16 74.50 74.81 74.99 75.21 74.84 73.80 73.63 73.04 72.04 72.09 71.61 71.58 69.77 70.78 70.77 69.96 69.31 69.45 69.04 69.24 69.45 70.01 69.53 69.47 70.01 69.53 70.14 70.43 71.07 72.12 72.00 72.19 71.28
66.11 66.79 68.97 70.51 71.31 71.80 71.38 71.41 72.46 72.63 73.52 73.24 73.49 74.41 73.76 72.53 72.26 71.90 71.15 70.90 71.27 69.79 69.81 69.75 69.24 69.58 69.80 69.49 69.12 68.80 68.91 68.90 68.52 68.86 69.89 69.45 70.20 71.07 71.75 71.82 72.02 72.34 71.52
67.01 67.01 67.94 69.90 70.88 71.01 71.26 70.33 70.99 71.87 71.54 72.19 72.63 73.21 72.86 71.68 71.16 70.89 70.56 69.92 69.15 69.27 68.87 68.84 68.87 69.24 69.03 69.30 68.87 68.36 67.86 68.32 68.77 68.60 68.70 68.98 69.47 70.47 71.54 72.17 72.06 72.34 71.90
65.75 68.01 68.62 69.63 71.15 70.72 70.73 71.23 70.30 70.72 70.59 70.45 70.88 70.88 71.77 71.16 70.66 69.23 69.15 68.69 68.50 68.61 68.47 68.37 68.20 68.37 68.37 68.34 68.21 68.65 68.40 68.55 68.83 68.85 68.21 68.71 69.32 69.83 70.65 71.61 72.24 71.83 71.91
64.26 66.16 69.21 69.55 69.87 69.89 69.28 70.57 69.70 69.20 69.10 68.77 68.97 70.00 70.03 70.17 69.69 68.90 67.93 67.72 68.04 68.89 69.28 68.77 68.50 68.36 67.74 67.94 67.94 68.54 68.94 69.42 69.41 69.53 69.35 68.88 70.08 69.70 70.42 71.48 71.88 71.91 71.62
62.04 64.20 66.82 69.82 69.45 70.56 69.03 68.43 68.85 69.31 68.87 68.44 68.37 68.80 69.11 69.40 69.34 68.64 67.44 67.13 68.00 68.37 67.85 67.54 67.51 66.91 67.12 67.51 67.51 68.26 68.59 69.40 69.61 69.76 69.73 70.05 70.95 71.53 71.31 70.99 71.79 71.50 71.65
60.43 62.43 62.95 68.01 71.00 69.95 69.26 68.61 68.57 69.02 68.80 68.83 68.54 68.13 68.76 68.97 68.74 68.80 68.60 66.98 68.31 67.19 66.62 67.42 67.67 67.56 67.16 67.51 67.37 67.94 68.52 68.86 69.72 69.38 69.91 70.72 71.54 71.69 72.01 71.57 70.26 70.38 70.97
59.47 61.04 61.54 65.34 70.04 72.52 70.96 68.99 67.59 67.67 67.53 68.34 68.21 68.13 68.39 68.80 68.53 68.69 67.80 67.24 67.05 66.30 66.34 67.16 68.21 68.29 67.99 68.10 66.82 66.97 68.52 68.93 69.78 69.72 70.13 70.35 70.79 71.44 72.26 72.10 71.84 70.65 69.15
59.10 59.77 60.32 61.29 64.97 70.39 70.17 69.17 68.13 66.60 67.67 67.30 68.40 68.86 68.67 68.69 68.13 68.48 65.55 66.09 67.06 65.39 67.29 68.95 68.51 68.13 67.02 67.88 66.56 66.92 67.95 69.25 69.53 69.82 70.48 70.54 70.75 71.12 71.01 71.32 71.11 70.72 70.40
58.11 59.58 60.09 60.86 62.10 65.29 69.26 70.64 70.55 70.34 70.04 69.46 69.56 70.13 69.33 69.23 70.28 69.89 66.50 66.54 67.19 67.48 69.55 69.18 68.58 67.40 67.33 67.62 66.51 66.97 64.69 66.67 68.36 69.36 69.74 69.87 70.78 70.78 70.23 70.42 70.50 70.44 70.59
56.82 58.31 58.65 59.45 60.90 62.11 65.39 69.04 71.01 71.24 70.99 70.07 70.13 69.61 70.42 70.02 69.88 70.37 67.55 68.16 70.11 70.17 69.41 69.50 68.91 68.23 66.45 66.73 68.57 67.64 64.02 62.32 66.03 67.21 68.29 68.87 69.44 69.18 69.69 69.81 69.87 69.95 70.44
55.01 56.29 57.75 59.78 59.85 61.03 62.84 65.91 69.79 67.91 67.89 69.84 70.77 71.19 71.71 71.67 71.79 70.67 70.19 70.18 70.92 70.43 70.81 69.86 69.52 68.79 68.74 67.34 67.02 67.96 67.85 67.83 63.29 62.56 65.98 67.18 68.37 68.40 69.03 69.02 69.01 69.61 69.75
54.85 55.22 56.71 58.80 59.45 60.39 61.18 63.08 65.07 68.46 69.33 70.65 71.34 73.41 73.00 72.99 72.31 71.49 72.08 71.70 71.24 71.09 71.78 70.38 68.86 67.72 68.28 69.12 67.96 67.03 66.49 66.48 66.41 64.30 62.55 64.13 66.08 67.55 68.09 68.16 68.75 68.90 69.04
53.60 54.34 55.69 57.12 58.94 59.81 59.44 60.81 64.22 66.69 69.03 68.67 69.87 69.64 70.44 70.72 71.82 73.10 72.78 72.77 72.40 71.75 70.92 69.96 69.84 69.45 69.30 70.06 69.33 67.26 66.22 64.10 64.97 64.54 62.42 64.68 63.99 66.42 66.92 67.51 67.74 68.22 68.92
MSLP
1007.09 1007.44 1008.60 1009.31 1009.73 1009.89 1010.13 1010.27 1010.44 1010.73 1011.10 1011.45 1011.83 1012.17 1012.50 1012.83 1013.05 1013.42 1013.68 1013.95 1014.15 1014.27 1014.38 1014.60 1014.77 1015.00 1015.24 1015.35 1015.40 1015.51 1015.57 1015.67 1015.74 1015.90 1016.02 1015.97 1015.87 1015.85 1015.85 1015.78 1015.81 1015.50 1016.07
1006.18 1007.29 1008.41 1009.07 1009.37 1009.70 1010.01 1010.27 1010.47 1010.72 1011.03 1011.44 1011.78 1012.10 1012.47 1012.94 1013.35 1013.54 1013.90 1014.19 1014.43 1014.49 1014.72 1014.85 1014.97 1015.05 1015.27 1015.33 1015.56 1015.64 1015.70 1015.77 1015.93 1015.91 1016.15 1016.22 1016.17 1016.07 1016.07 1016.02 1016.01 1015.86 1016.20
1005.70 1006.97 1008.29 1009.09 1009.50 1009.68 1009.86 1010.09 1010.30 1010.67 1010.94 1011.32 1011.73 1012.11 1012.40 1012.68 1013.11 1013.65 1014.00 1014.20 1014.52 1014.73 1014.90 1015.03 1015.09 1015.11 1015.26 1015.38 1015.53 1015.64 1015.74 1015.83 1015.89 1015.90 1016.04 1015.83 1015.83 1016.26 1016.19 1016.16 1016.26 1016.37 1016.40
1005.88 1006.83 1007.91 1008.87 1009.44 1009.69 1009.73 1010.02 1010.29 1010.65 1010.98 1011.29 1011.59 1011.99 1012.40 1012.79 1013.16 1013.55 1013.92 1014.23 1014.54 1014.70 1015.02 1015.18 1015.31 1015.35 1015.42 1015.49 1015.63 1015.75 1015.78 1015.85 1015.93 1015.90 1015.65 1015.89 1015.92 1016.26 1016.24 1016.22 1016.40 1016.58 1016.63
1006.28 1006.79 1007.64 1008.66 1009.48 1009.82 1009.98 1009.99 1010.22 1010.55 1010.98 1011.33 1011.70 1012.02 1012.45 1012.93 1013.22 1013.57 1013.93 1014.11 1014.36 1014.74 1014.97 1015.18 1015.43 1015.55 1015.58 1015.72 1015.80 1015.95 1015.94 1015.87 1015.84 1015.65 1015.73 1015.81 1015.79 1016.04 1016.33 1016.44 1016.54 1016.63 1016.72
1006.17 1006.55 1007.56 1008.52 1009.48 1009.76 1010.10 1010.15 1010.39 1010.58 1011.01 1011.37 1011.69 1012.02 1012.51 1012.85 1013.31 1013.64 1013.98 1014.25 1014.30 1014.60 1014.92 1015.10 1015.42 1015.54 1015.74 1016.03 1016.15 1016.13 1016.11 1015.98 1015.77 1015.30 1015.69 1015.77 1015.74 1016.08 1016.35 1016.53 1016.61 1016.67 1016.78
1006.22 1006.51 1007.53 1008.57 1009.34 1009.80 1010.12 1010.42 1010.61 1010.76 1011.10 1011.36 1011.62 1012.00 1012.43 1012.81 1013.26 1013.60 1013.91 1014.14 1014.27 1014.43 1014.71 1014.99 1015.28 1015.39 1015.78 1016.11 1016.24 1016.09 1016.12 1016.10 1015.54 1015.32 1015.48 1015.67 1015.69 1016.17 1016.26 1016.45 1016.62 1016.74 1016.83
1006.36 1007.10 1007.40 1008.58 1009.35 1009.93 1010.19 1010.48 1010.60 1010.79 1011.07 1011.31 1011.58 1011.80 1012.23 1012.66 1013.02 1013.30 1013.75 1014.08 1014.12 1014.39 1014.54 1014.78 1014.80 1014.99 1015.14 1015.67 1015.97 1016.03 1016.18 1016.21 1016.02 1015.79 1015.74 1015.53 1015.95 1016.12 1016.16 1016.31 1016.58 1016.75 1016.88
1006.45 1006.96 1007.55 1008.04 1008.89 1009.65 1010.13 1010.60 1010.77 1010.90 1011.09 1011.33 1011.60 1011.79 1012.30 1012.57 1012.84 1013.02 1013.53 1013.96 1014.14 1014.36 1014.41 1014.70 1014.83 1014.96 1015.08 1015.32 1015.89 1015.99 1016.14 1016.06 1015.52 1015.45 1015.69 1015.73 1015.97 1015.97 1016.00 1016.20 1016.45 1016.68 1016.78
1006.84 1007.02 1007.39 1007.90 1008.73 1009.31 1009.78 1010.34 1010.71 1011.06 1011.31 1011.58 1011.75 1012.06 1012.30 1012.77 1013.00 1013.06 1013.61 1013.96 1014.18 1014.37 1014.58 1014.73 1014.78 1014.98 1015.19 1015.25 1015.62 1015.83 1015.78 1015.87 1015.28 1015.35 1015.07 1015.33 1016.08 1015.90 1015.87 1015.98 1016.20 1016.48 1016.63
1007.10 1007.34 1007.67 1007.98 1008.33 1008.90 1009.49 1010.04 1010.58 1010.95 1011.46 1011.73 1011.84 1012.05 1012.49 1012.67 1013.02 1013.03 1013.27 1013.77 1014.21 1014.19 1014.42 1014.78 1014.81 1014.81 1015.04 1015.25 1015.30 1015.65 1015.85 1015.11 1015.18 1014.93 1014.78 1015.20 1015.59 1015.77 1015.68 1015.79 1015.94 1016.21 1016.36
1007.08 1007.35 1007.73 1008.27 1008.77 1009.06 1009.44 1009.92 1010.32 1010.54 1010.94 1011.40 1011.60 1011.77 1012.10 1012.57 1012.93 1013.05 1013.17 1013.83 1014.02 1014.20 1014.39 1014.63 1014.82 1015.00 1014.99 1014.62 1014.88 1015.45 1015.04 1014.96 1015.02 1014.78 1014.61 1015.09 1015.15 1015.41 1015.45 1015.55 1015.62 1015.90 1016.22
1007.00 1007.40 1007.82 1008.30 1008.82 1009.22 1009.22 1009.78 1010.07 1010.19 1010.49 1010.94 1011.36 1011.66 1011.78 1012.49 1012.84 1013.10 1012.98 1013.39 1013.74 1014.13 1014.11 1014.40 1014.69 1014.54 1014.25 1014.17 1014.50 1014.67 1014.72 1014.78 1014.63 1014.59 1014.46 1014.99 1014.86 1014.99 1015.22 1015.30 1015.49 1015.61 1015.84
1006.52 1007.15 1007.71 1008.22 1008.61 1009.07 1009.08 1009.45 1009.59 1009.95 1009.99 1010.27 1010.75 1011.35 1011.56 1011.95 1012.48 1012.57 1012.58 1012.90 1013.50 1013.54 1013.61 1013.91 1014.02 1014.06 1014.29 1014.20 1014.27 1014.40 1014.60 1014.52 1014.43 1014.38 1014.34 1014.69 1014.70 1014.73 1014.95 1014.98 1015.18 1015.36 1015.51
1006.14 1006.71 1007.03 1007.62 1008.08 1008.68 1009.15 1009.17 1009.27 1009.50 1009.62 1009.48 1010.04 1010.63 1011.06 1011.29 1012.01 1012.22 1012.47 1012.79 1013.07 1013.15 1013.28 1013.41 1013.71 1013.98 1014.11 1013.90 1014.07 1014.15 1014.12 1014.24 1014.28 1014.16 1014.14 1014.38 1014.31 1014.48 1014.63 1014.76 1014.84 1014.95 1015.14
1006.04 1006.33 1006.55 1006.70 1007.03 1007.88 1008.47 1008.84 1009.00 1009.31 1009.27 1009.74 1009.65 1010.22 1010.54 1010.95 1011.94 1012.20 1012.64 1012.89 1013.07 1013.10 1012.87 1013.01 1013.21 1013.48 1013.51 1013.37 1013.50 1013.59 1013.70 1013.94 1013.87 1013.84 1013.74 1013.88 1013.84 1014.05 1014.26 1014.39 1014.44 1014.64 1014.74
1005.89 1006.39 1006.08 1006.63 1006.93 1006.89 1007.53 1008.41 1008.78 1008.73 1008.89 1009.38 1009.50 1009.97 1010.42 1010.82 1011.59 1011.97 1012.10 1012.28 1012.53 1013.01 1013.27 1013.01 1012.80 1013.04 1013.12 1013.16 1013.09 1013.07 1013.22 1013.42 1013.36 1013.48 1013.52 1013.56 1013.11 1013.54 1013.80 1013.90 1013.91 1014.18 1014.50
1005.90 1005.75 1005.62 1005.85 1006.42 1006.88 1006.88 1007.15 1007.47 1007.96 1008.48 1008.49 1008.96 1009.34 1009.68 1010.39 1010.97 1011.72 1011.86 1011.65 1011.56 1012.67 1013.03 1013.18 1012.70 1012.69 1012.69 1012.51 1012.59 1012.74 1012.90 1013.01 1012.88 1013.15 1013.11 1013.08 1012.87 1012.90 1013.20 1013.35 1013.46 1013.72 1014.03
1006.23 1006.05 1004.55 1006.12 1006.66 1006.82 1006.67 1007.08 1006.93 1007.24 1007.63 1007.59 1008.25 1008.73 1008.98 1009.78 1010.18 1011.35 1011.65 1012.39 1011.85 1012.32 1013.27 1013.41 1012.11 1012.37 1012.17 1012.12 1012.04 1012.38 1012.55 1012.69 1012.73 1012.63 1012.71 1012.68 1012.53 1012.61 1012.72 1012.88 1013.19 1013.34 1013.54
1005.96 1006.37 1006.22 1006.27 1005.56 1005.86 1006.44 1006.56 1006.99 1007.02 1006.87 1007.05 1007.38 1007.77 1008.66 1009.17 1010.06 1010.99 1011.28 1011.56 1011.25 1012.03 1012.41 1012.91 1012.78 1012.02 1011.63 1011.74 1011.76 1011.88 1012.15 1012.35 1012.31 1012.32 1012.31 1012.20 1012.07 1012.24 1012.53 1012.69 1012.69 1012.71 1013.25
1006.05 1005.78 1005.98 1006.40 1006.32 1006.16 1006.21 1005.95 1005.80 1005.75 1006.15 1006.08 1006.27 1006.65 1007.62 1008.38 1008.95 1010.00 1010.16 1010.57 1010.06 1010.70 1011.05 1011.93 1012.49 1011.88 1011.31 1011.47 1011.47 1011.27 1011.39 1011.64 1011.75 1011.72 1011.92 1011.86 1011.73 1011.92 1012.28 1012.34 1012.42 1012.45 1012.51
1006.17 1005.96 1005.66 1005.66 1005.65 1005.67 1005.31 1004.98 1004.94 1004.83 1004.84 1005.51 1005.78 1006.01 1006.53 1007.04 1007.16 1007.42 1006.65 1008.48 1009.73 1010.15 1010.27 1011.31 1011.70 1011.27 1010.89 1011.02 1010.74 1010.76 1010.56 1010.84 1010.96 1011.28 1011.55 1011.53 1011.50 1011.65 1011.91 1012.04 1012.14 1012.31 1012.43
1006.13 1005.80 1005.43 1005.23 1005.13 1005.27 1005.07 1004.83 1004.68 1004.66 1004.74 1004.54 1004.71 1005.07 1005.22 1005.90 1006.04 1005.90 1005.18 1007.59 1009.00 1009.24 1009.09 1010.33 1010.63 1010.42 1010.08 1010.51 1010.60 1009.86 1010.33 1009.94 1010.25 1011.13 1011.28 1011.14 1011.33 1011.54 1011.67 1011.75 1011.92 1012.07 1012.23
1006.33 1006.03 1005.55 1004.98 1004.77 1004.48 1004.61 1004.43 1004.17 1003.84 1003.68 1003.07 1003.38 1003.87 1004.46 1004.49 1005.12 1005.21 1005.63 1006.92 1007.94 1008.32 1008.54 1008.99 1009.45 1009.46 1009.54 1009.62 1010.37 1010.26 1010.34 1010.07 1009.82 1010.39 1010.88 1010.91 1011.26 1011.47 1011.53 1011.51 1011.68 1011.77 1011.97
1006.51 1006.16 1005.59 1005.15 1004.52 1004.47 1004.51 1004.40 1004.05 1003.72 1003.13 1002.85 1002.65 1003.06 1003.35 1004.17 1004.63 1004.97 1005.22 1006.44 1006.95 1007.55 1007.65 1007.85 1008.45 1008.64 1008.65 1008.71 1008.98 1009.69 1010.12 1010.17 1010.25 1010.11 1009.75 1010.34 1010.79 1011.03 1011.26 1011.35 1011.35 1011.41 1011.68
1006.47 1006.14 1005.63 1005.06 1004.03 1003.69 1004.11 1003.69 1003.60 1003.13 1002.74 1002.19 1002.36 1002.74 1002.59 1003.16 1003.66 1004.15 1004.67 1005.59 1006.15 1006.25 1006.47 1007.00 1007.40 1007.76 1008.07 1008.25 1008.55 1009.19 1009.18 1009.36 1009.37 1009.80 1009.76 1009.69 1009.87 1010.52 1010.95 1011.08 1011.22 1011.22 1011.35
Wind_Speed
14 21 22 20 17 15 17 18 19 19 18 18 18 17 16 15 15 14 14 13 12 12 11 11 11 10 10 10 9 9 9 8 8 8 7 7 6 5 5 7 6 5 7
21 23 26 22 20 18 17 19 19 19 18 18 18 18 17 15 14 14 13 13 12 11 10 10 10 10 10 10 9 9 9 8 6 6 5 5 5 3 3 4 3 6 6
26 25 25 23 20 19 19 18 19 19 19 18 18 18 17 17 16 14 13 13 12 11 11 10 11 11 11 11 10 10 9 8 7 5 5 3 3 3 1 4 4 4 6
24 22 23 24 21 20 20 19 18 19 19 19 19 18 17 16 15 15 14 13 12 12 11 10 10 11 11 11 10 9 9 8 7 6 4 2 1 2 1 2 3 4 5
22 23 22 24 21 20 19 20 19 19 18 18 18 18 17 15 15 14 14 13 13 13 12 11 11 10 10 10 10 8 8 8 7 5 3 1 2 3 1 2 5 5 5
23 23 24 24 21 21 20 20 19 20 19 19 18 18 17 17 15 15 14 12 13 13 13 13 11 10 10 9 8 8 6 5 6 6 2 3 3 3 3 2 4 4 5
21 21 22 22 21 20 20 19 20 20 19 19 19 18 18 17 16 15 14 14 13 14 14 13 12 10 9 8 8 8 6 3 4 4 3 1 2 4 4 3 4 6 6
19 18 21 21 19 18 19 19 19 19 19 19 19 19 19 17 17 16 15 15 15 14 14 14 13 12 11 9 8 7 5 3 4 1 2 2 3 5 6 5 5 5 6
18 18 17 20 19 18 17 16 16 16 17 17 17 17 17 17 17 17 16 15 14 14 14 13 12 11 11 10 8 6 5 4 5 2 3 4 4 5 8 7 5 5 6
14 16 18 17 18 17 16 15 14 13 13 12 13 13 14 15 15 15 14 14 14 13 12 13 13 11 10 9 7 7 7 6 6 4 4 2 5 4 9 8 7 7 7
11 13 14 16 17 16 16 15 13 15 13 11 12 12 11 11 13 14 13 12 13 13 13 12 12 12 10 9 9 9 7 5 5 4 3 4 5 6 7 9 8 8 8
13 13 12 13 14 14 11 13 14 13 12 12 12 13 11 10 9 9 9 12 12 12 12 12 12 12 11 7 6 9 6 5 5 5 4 4 6 7 7 9 10 9 8
12 10 11 11 11 13 12 9 8 8 9 9 14 12 11 8 8 8 5 7 7 10 7 10 10 9 10 6 6 6 6 6 5 5 5 6 7 8 10 10 11 9 8
13 13 12 11 10 12 9 9 10 9 10 9 11 13 9 7 8 7 6 7 7 6 8 8 6 8 9 8 9 8 8 7 5 5 5 7 8 9 11 10 11 11 9
10 13 14 15 13 12 12 9 9 10 9 10 10 12 10 9 9 8 6 6 7 7 8 7 7 7 9 8 9 9 9 9 9 6 5 7 10 10 11 12 12 10 8
6 9 13 15 17 14 13 12 9 8 9 9 9 9 12 8 7 7 6 6 7 7 7 7 7 8 8 8 9 9 10 9 9 8 7 7 8 11 12 14 13 12 9
4 7 10 13 12 15 14 11 9 8 9 9 9 11 10 10 8 8 7 7 7 7 9 8 8 8 8 7 9 7 8 9 8 8 7 7 5 11 12 14 11 12 10
7 4 4 6 12 14 12 12 12 11 9 10 9 9 13 11 10 10 6 7 7 6 7 9 7 7 8 7 6 5 6 7 8 7 7 6 5 5 6 12 11 12 13
6 6 8 6 13 16 12 9 10 10 11 10 9 9 12 12 12 8 6 4 3 4 7 9 8 9 7 6 6 5 5 6 7 5 7 8 6 6 5 4 6 7 11
9 5 4 6 7 9 9 8 7 8 10 8 9 9 10 10 9 8 8 10 7 5 7 10 12 8 6 6 5 5 5 6 6 6 7 7 6 7 7 6 4 6 7
9 10 7 4 5 6 9 8 9 11 10 11 12 13 13 11 10 11 7 9 7 10 11 11 11 10 7 5 4 5 6 7 8 7 6 6 6 5 6 5 5 5 5
11 11 10 8 5 5 7 7 7 6 8 10 10 11 14 15 16 18 16 10 10 8 12 13 13 7 6 8 4 3 4 6 6 6 5 5 6 5 6 6 7 7 6
13 13 13 12 10 6 8 8 8 8 6 6 10 11 15 17 18 12 10 11 12 12 10 14 14 13 7 7 10 3 4 5 2 3 5 4 4 5 5 6 6 6 6
15 14 15 13 13 10 6 8 12 11 12 11 10 11 12 17 15 11 12 14 13 11 13 13 11 10 6 8 6 7 4 1 4 4 3 4 3 4 4 4 5 5 5
13 14 15 15 13 13 9 10 10 13 11 11 10 11 12 11 16 15 14 17 15 13 13 12 12 12 10 9 8 6 8 5 3 7 6 4 4 4 4 4 4 4 4
12 13 14 15 15 14 12 12 12 14 14 11 10 11 9 9 12 15 18 16 14 13 13 12 12 13 11 10 8 6 7 5 8 6 5 4 5 3 3 3 4 4 3
Wind_Direction
175 159 160 168 172 161 148 143 141 142 142 143 142 142 140 141 139 140 140 142 143 143 140 134 125 119 112 105 104 97 92 86 82 79 75 73 83 111 117 120 138 121 125
156 159 167 172 172 165 156 148 146 145 144 145 144 143 141 139 141 142 149 150 153 147 145 138 131 124 118 115 112 106 103 94 87 83 69 85 67 75 148 141 134 108 142
155 160 168 172 173 168 162 157 151 150 147 148 145 146 149 149 149 152 154 153 156 154 149 144 138 133 129 125 121 114 111 108 101 92 78 82 76 36 40 185 163 162 162
156 157 167 170 175 173 168 164 157 154 152 152 152 152 150 152 153 156 159 159 161 155 153 148 145 139 136 129 125 124 119 118 106 103 132 114 91 86 55 190 188 186 181
163 161 165 168 177 175 175 167 164 160 159 157 155 153 155 157 159 161 165 163 162 160 160 156 156 145 137 134 132 129 130 123 109 134 102 32 219 135 174 190 193 199 214
168 164 160 167 178 178 181 173 168 164 164 162 160 159 162 164 168 165 167 168 165 166 167 163 163 150 143 145 144 138 136 134 164 128 100 34 236 115 197 208 241 236 214
169 166 163 166 176 181 182 179 174 170 169 168 166 165 168 170 170 169 172 174 174 173 173 169 168 156 154 161 163 152 148 163 217 146 155 24 215 190 215 220 234 234 219
165 168 164 167 176 184 184 184 179 174 173 173 172 169 173 173 175 172 178 182 180 180 176 176 173 169 165 175 178 159 163 202 208 197 240 210 63 214 222 227 242 239 230
167 166 171 174 178 183 183 187 184 180 179 177 178 174 177 177 180 177 182 186 185 186 183 183 176 176 177 178 191 175 181 206 233 198 245 258 107 233 222 227 236 244 234
170 173 173 177 184 190 189 184 185 184 184 184 182 182 181 186 189 181 182 190 190 188 188 186 183 186 188 182 196 200 204 219 231 225 202 243 281 249 218 223 232 239 246
183 181 184 179 185 189 195 192 184 186 190 192 189 189 184 201 198 188 192 185 195 191 193 192 192 191 191 199 204 220 225 231 228 230 228 149 252 265 230 224 232 230 232
206 194 190 191 192 191 193 198 197 193 198 203 203 200 202 209 211 210 193 197 199 200 195 200 200 197 199 212 206 218 230 235 238 237 241 202 241 248 248 233 235 238 240
214 215 202 196 200 203 195 198 201 196 195 202 208 203 200 207 207 209 200 198 210 202 213 203 209 217 218 215 222 230 237 236 243 245 243 229 242 250 258 250 248 249 239
206 210 213 207 205 209 205 203 205 207 199 202 206 204 201 201 208 210 206 207 211 213 215 220 221 228 228 222 233 239 240 245 244 247 251 234 247 257 262 263 246 241 245
224 213 202 203 204 208 215 215 217 217 211 210 204 206 210 212 214 208 207 215 220 212 216 218 225 226 232 228 236 239 246 248 250 251 257 230 248 253 258 257 255 245 237
319 250 222 205 196 198 210 213 215 216 219 225 216 213 206 208 223 213 208 225 240 235 223 224 220 226 229 234 233 237 246 253 250 251 251 252 232 251 255 260 261 239 230
288 264 239 219 221 195 196 217 218 214 208 220 222 212 212 207 211 216 210 216 238 245 251 232 220 224 232 225 236 234 243 247 249 249 247 251 240 227 253 260 249 232 230
340 311 311 241 229 222 209 210 205 206 209 219 215 211 206 207 206 221 214 219 213 241 251 249 228 227 230 225 229 232 234 248 246 249 248 247 242 262 250 248 248 227 220
0 341 11 299 234 218 224 232 213 209 216 218 217 218 205 204 202 205 201 250 282 246 259 260 228 225 223 226 224 232 233 248 252 247 249 246 243 248 263 258 263 250 230
335 2 53 286 282 247 236 217 229 233 220 215 214 212 201 199 185 212 215 214 193 214 232 241 246 218 225 231 226 233 235 245 249 246 251 250 246 250 252 258 247 233 232
330 339 352 341 308 238 226 225 227 227 233 219 217 204 191 179 186 220 189 218 177 195 212 228 239 226 212 204 209 222 239 233 239 244 248 249 252 253 253 248 256 259 254
320 325 327 327 322 271 239 231 234 217 229 230 228 205 182 183 192 202 176 206 210 207 211 224 222 216 214 192 198 207 242 202 216 224 232 232 246 250 249 250 256 250 251
328 327 324 320 315 298 270 251 239 242 238 217 221 208 196 198 210 233 158 191 216 217 209 217 215 214 199 194 211 211 191 229 169 178 211 230 249 244 250 248 246 244 243
325 322 318 318 316 310 302 260 238 239 240 224 218 219 208 199 219 196 186 200 208 209 213 209 209 210 195 199 195 221 266 188 221 197 202 197 204 222 230 235 239 241 242
325 321 316 310 308 304 299 269 254 242 244 243 232 224 205 200 206 204 200 207 203 210 210 204 197 199 201 207 198 179 212 216 211 252 253 193 208 215 236 242 263 258 240
322 316 314 310 306 309 302 288 258 252 242 238 225 224 208 194 196 205 201 204 205 207 201 197 200 199 206 207 196 183 188 186 208 215 230 226 265 190 237 243 245 244 239